loading
|

THOR ABLESTAR DEB, 3592

Orbit data source: Space-Track

THOR ABLESTAR DEB, 3592 is space debris in LEO originally from a launch on Thu, 24 Jun 1965 UTC launched from the Air Force Western Test Range (AFWTR). Debris objects in space refer to the collection of defunct objects orbiting the Earth. Examples of debris include non-operational satellites, rocket bodies, and fragments generated from explosions, collisions, or faulty payload assembly.

Loading next visibility...
Loading greatness...
THOR ABLESTAR DEB details
Identifier
3592, 1965-048F
Orbit
LEO
Last TLE update21 hours ago
Origin
Flag of USUSN BuWeps (US)
ManufacturerUnknown
Mission statusUnknown
MissionUnknown
Bus & MotorUnknown
MassUnknown
Launch date (UTC)
1965-06-24 (59 years ago)
Launch vehicleUnknown
Launch site
Air Force Western Test Range (AFWTR)
Object type
Payload
Rocket body
Debris
Radar Cross SectionSmall (<0.1 m²)

Expand to show TLE details & history

TLE from 21 hours ago
0 THOR ABLESTAR DEB
1 03592U 65048F   24261.04133076  .00000647  00000-0  81280-3 0  9990
2 03592  89.8876 295.5644 0063018  47.2469 342.6225 13.62194495933072
Epoch: 2024-09-17T00:59Z
Definitive object data (Epoch: 2024-09-17T00:59:30.977Z)
Latitude29.69913°
Longitude-75.71258°
Altitude986.983 km
Speed7.383 km/s
True Right ascension19h 42m 30s
True Declination29° 33' 21"
Sunlit
Object was in daylight at TLE epoch
Predictive object data (real-time)
Latitude-87.30807°
Longitude106.59277°
Altitude1,090.789 km
Speed7.289 km/s
Apparent Right ascension02h 37m 50s
Apparent Declination-66° 42' 03"
Sunlit
Object is in daylight
Predictive observer data (real-time)
Local Sidereal Time14:21:41
Azimuth183.529° SSW
Elevation-63.12°
Doppler factor1
Orbital elements
Apogee1,071.411 km
Perigee978.108 km
Semi-major axis7,402.896 km
Eccentricity0.0063018
Inclination89.8876°
RAAN295.5644°
Arg. of periapsis47.2469°
True anomaly342.40519°
Mean anomaly342.6225°
Eccentric anomaly342.51401°
Mean motion3.40754 °/min
BSTAR0.0008128
Period105.65 mins
No data available

THOR ABLESTAR DEB Visibility forecast

Observer location: 39.9160978°, -105.1181434

THOR ABLESTAR DEB is not visible in the next 10 days
Span
Click to sort rows by Start time (UTC) header in descending order
Start Az.
Max El. time (UTC)
Max El. Az.
Max El.
End time (UTC)
End Az.